Weather History for Pinedale, WY

Change the Weather History Date:

Friday, December 7, 2012

  Actual Average (KBPI) Record (KBPI)
Temperature  
Mean Temperature 21 °F 14 °F  
Max Temperature 30 °F 27 °F 49 °F (1987)
Min Temperature 12 °F 1 °F -31 °F (2005)
Degree Days  
Heating Degree Days 44 51  
Month to date heating degree days 350  
Since 1 July heating degree days 3165  
Cooling Degree Days 0 0  
Month to date cooling degree days 0  
Year to date cooling degree days 35  
Moisture  
Dew Point 17 °F    
Average Humidity 77    
Maximum Humidity 100    
Minimum Humidity 47    
Precipitation  
Precipitation 0.00 in 0.01 in 0.31 in (1987)
Month to date precipitation 0.07  
Year to date precipitation 6.25  
Sea Level Pressure  
Sea Level Pressure 29.92 in    
Wind  
Wind Speed 7 mph (WNW)    
Max Wind Speed 17 mph    
Max Gust Speed 24 mph    
Visibility 10 miles    
Events Snow    
T = Trace of Precipitation, MM = Missing Value Source: NWS Daily Summary

Daily Weather History Graph

Daily Weather History Graph

Search for Another Location

Airport:

Trip Planner

Search our weather history database for the weather conditions in past years. The results will help you decide how hot, cold, wet, or windy it might be!

Date:

Astronomy

Dec. 07, 2012 Rise Set
Actual Time 7:36 AM MST 4:45 PM MST
Civil Twilight 7:04 AM MST 5:17 PM MST
Nautical Twilight 6:29 AM MST 5:52 PM MST
Astronomical Twilight 5:54 AM MST 6:26 PM MST
Moon 12:51 AM MST (12/7) 12:51 PM MST (12/7)
Length of Visible Light 10h 12m
Length of Day
9h 08m
Last Quarter, 38% of the Moon is Illuminated
Dec 7
Last Quarter
Dec 13
New
Dec 19
First Quarter
Dec 28
Full
Jan 4
Last Quarter

Hourly Weather History & Observations

Time (MST) Temp. Windchill Dew Point Humidity Pressure Visibility Wind Dir Wind Speed Gust Speed Precip Events Conditions
12:15 AM 26.6 °F 16.2 °F 21.2 °F 80% 29.90 in 10.0 mi NW 11.5 mph - N/A   Mostly Cloudy
12:35 AM 26.6 °F 15.7 °F 23.0 °F 86% 29.90 in 10.0 mi NNW 12.7 mph - N/A   Scattered Clouds
12:55 AM 26.6 °F 16.2 °F 23.0 °F 86% 29.90 in 10.0 mi NW 11.5 mph - N/A   Clear
1:15 AM 26.6 °F 16.2 °F 23.0 °F 86% 29.90 in 10.0 mi WNW 11.5 mph - N/A   Clear
1:35 AM 26.6 °F 16.2 °F 23.0 °F 86% 29.90 in 10.0 mi WNW 11.5 mph - N/A   Clear
1:55 AM 24.8 °F 16.1 °F 21.2 °F 86% 29.90 in 10.0 mi NW 8.1 mph - N/A   Clear
2:15 AM 23.0 °F 14.7 °F 21.2 °F 93% 29.91 in 10.0 mi WNW 6.9 mph - N/A   Scattered Clouds
2:35 AM 24.8 °F 16.9 °F 19.4 °F 80% 29.92 in 10.0 mi NNW 6.9 mph - N/A   Mostly Cloudy
2:55 AM 23.0 °F 18.4 °F 19.4 °F 86% 29.92 in 10.0 mi NW 3.5 mph - N/A   Mostly Cloudy
3:15 AM 23.0 °F 18.4 °F 21.2 °F 93% 29.92 in 10.0 mi WNW 3.5 mph - N/A   Overcast
3:35 AM 23.0 °F 17.0 °F 21.2 °F 93% 29.92 in 10.0 mi NNW 4.6 mph - N/A   Overcast
3:55 AM 21.2 °F 14.9 °F 19.4 °F 93% 29.92 in 10.0 mi NNW 4.6 mph - N/A   Scattered Clouds
4:15 AM 21.2 °F 16.4 °F 17.6 °F 86% 29.91 in 10.0 mi WNW 3.5 mph - N/A   Clear
4:35 AM 19.4 °F 12.8 °F 17.6 °F 93% 29.92 in 10.0 mi NNW 4.6 mph - N/A   Clear
4:55 AM 19.4 °F 14.3 °F 17.6 °F 93% 29.91 in 10.0 mi West 3.5 mph - N/A   Clear
5:15 AM 19.4 °F 14.3 °F 15.8 °F 86% 29.92 in 10.0 mi NNW 3.5 mph - N/A   Clear
5:35 AM 15.8 °F 10.2 °F 14.0 °F 93% 29.92 in 10.0 mi West 3.5 mph - N/A   Clear
5:55 AM 15.8 °F 7.2 °F 14.0 °F 93% 29.91 in 10.0 mi West 5.8 mph - N/A   Clear
6:15 AM 14.0 °F - 14.0 °F 100% 29.92 in 10.0 mi Calm Calm - N/A   Clear
6:35 AM 12.2 °F - 10.4 °F 92% 29.92 in 10.0 mi Calm Calm - N/A   Clear
6:55 AM 12.2 °F - 12.2 °F 100% 29.92 in 10.0 mi Calm Calm - N/A   Scattered Clouds
7:15 AM 14.0 °F - 12.2 °F 93% 29.93 in 10.0 mi Calm Calm - N/A   Mostly Cloudy
7:35 AM 14.0 °F - 12.2 °F 93% 29.93 in 10.0 mi Calm Calm - N/A   Mostly Cloudy
7:55 AM 14.0 °F - 12.2 °F 93% 29.93 in 10.0 mi Calm Calm - N/A   Scattered Clouds
8:15 AM 15.8 °F - 14.0 °F 93% 29.94 in 10.0 mi Calm Calm - N/A   Scattered Clouds
8:35 AM 17.6 °F - 15.8 °F 93% 29.95 in 10.0 mi Calm Calm - N/A   Scattered Clouds
8:55 AM 19.4 °F - 17.6 °F 93% 29.95 in 10.0 mi Calm Calm - N/A   Scattered Clouds
9:15 AM 21.2 °F - 19.4 °F 93% 29.95 in 10.0 mi Calm Calm - N/A   Mostly Cloudy
9:35 AM 24.8 °F 17.9 °F 19.4 °F 80% 29.95 in 10.0 mi West 5.8 mph - N/A   Overcast
9:55 AM 24.8 °F 17.9 °F 19.4 °F 80% 29.96 in 10.0 mi NW 5.8 mph - N/A   Mostly Cloudy
10:15 AM 26.6 °F 22.6 °F 19.4 °F 74% 29.97 in 10.0 mi NW 3.5 mph - N/A   Mostly Cloudy
10:35 AM 26.6 °F 20.0 °F 19.4 °F 74% 29.97 in 10.0 mi NW 5.8 mph - N/A   Mostly Cloudy
10:55 AM 26.6 °F 20.0 °F 19.4 °F 74% 29.97 in 10.0 mi West 5.8 mph - N/A   Mostly Cloudy
11:15 AM 28.4 °F 18.5 °F 17.6 °F 64% 29.97 in 10.0 mi NW 11.5 mph 17.3 mph N/A   Overcast
11:35 AM 26.6 °F 16.2 °F 15.8 °F 64% 29.97 in 10.0 mi WNW 11.5 mph - N/A   Mostly Cloudy
11:55 AM 26.6 °F 16.8 °F 15.8 °F 64% 29.97 in 10.0 mi WNW 10.4 mph - N/A   Scattered Clouds
12:15 PM 28.4 °F 19.7 °F 15.8 °F 59% 29.96 in 10.0 mi NW 9.2 mph - N/A   Mostly Cloudy
12:35 PM 28.4 °F 18.0 °F 14.0 °F 55% 29.95 in 10.0 mi WNW 12.7 mph 16.1 mph N/A   Overcast
12:55 PM 28.4 °F 17.5 °F 14.0 °F 55% 29.95 in 10.0 mi WNW 13.8 mph - N/A   Scattered Clouds
1:15 PM 28.4 °F 18.0 °F 14.0 °F 55% 29.95 in 10.0 mi WNW 12.7 mph - N/A   Scattered Clouds
1:35 PM 30.2 °F 19.3 °F 14.0 °F 51% 29.95 in 10.0 mi WNW 15.0 mph - N/A   Mostly Cloudy
1:55 PM 30.2 °F 18.5 °F 12.2 °F 47% 29.93 in 10.0 mi West 17.3 mph 24.2 mph N/A   Mostly Cloudy
2:15 PM 28.4 °F 18.0 °F 12.2 °F 51% 29.93 in 10.0 mi WNW 12.7 mph - N/A   Scattered Clouds
2:35 PM 28.4 °F 20.4 °F 12.2 °F 51% 29.93 in 10.0 mi West 8.1 mph - N/A   Mostly Cloudy
2:55 PM 28.4 °F 21.2 °F 14.0 °F 55% 29.93 in 10.0 mi NNW 6.9 mph - N/A   Mostly Cloudy
3:15 PM 28.4 °F 22.2 °F 14.0 °F 55% 29.93 in 10.0 mi West 5.8 mph 9.2 mph N/A   Mostly Cloudy
3:35 PM 28.4 °F 22.2 °F 12.2 °F 51% 29.93 in 10.0 mi West 5.8 mph - N/A   Mostly Cloudy
3:55 PM 28.4 °F 20.4 °F 12.2 °F 51% 29.93 in 10.0 mi West 8.1 mph - N/A   Mostly Cloudy
4:15 PM 28.4 °F 21.2 °F 12.2 °F 51% 29.93 in 10.0 mi West 6.9 mph - N/A   Scattered Clouds
4:35 PM 26.6 °F 21.2 °F 14.0 °F 59% 29.93 in 10.0 mi WSW 4.6 mph - N/A   Mostly Cloudy
4:55 PM 24.8 °F - 14.0 °F 64% 29.93 in 10.0 mi Calm Calm - N/A   Mostly Cloudy
5:15 PM 23.0 °F - 14.0 °F 68% 29.93 in 10.0 mi Calm Calm - N/A   Mostly Cloudy
5:35 PM 23.0 °F - 14.0 °F 68% 29.93 in 10.0 mi Calm Calm - N/A   Mostly Cloudy
5:55 PM 23.0 °F - 14.0 °F 68% 29.92 in 10.0 mi Calm Calm - N/A   Overcast
6:15 PM 23.0 °F 18.4 °F 14.0 °F 68% 29.92 in 10.0 mi North 3.5 mph - N/A   Overcast
6:35 PM 23.0 °F - 17.6 °F 80% 29.92 in 10.0 mi Calm Calm - N/A   Overcast
6:55 PM 23.0 °F - 17.6 °F 80% 29.92 in 10.0 mi Calm Calm - N/A   Overcast
7:15 PM 23.0 °F 17.0 °F 14.0 °F 68% 29.91 in 10.0 mi ENE 4.6 mph - N/A   Overcast
7:35 PM 23.0 °F 18.4 °F 14.0 °F 68% 29.90 in 10.0 mi East 3.5 mph - N/A   Overcast
7:55 PM 23.0 °F - 15.8 °F 74% 29.90 in 10.0 mi Calm Calm - N/A   Overcast
8:15 PM 23.0 °F - 15.8 °F 74% 29.89 in 10.0 mi Calm Calm - N/A   Overcast
8:55 PM 23.0 °F - 15.8 °F 74% 29.87 in 10.0 mi Calm Calm - N/A   Overcast
9:15 PM 23.0 °F 18.4 °F 17.6 °F 80% 29.86 in 10.0 mi NE 3.5 mph - N/A   Overcast
9:35 PM 23.0 °F - 17.6 °F 80% 29.85 in 10.0 mi Calm Calm - N/A   Overcast
9:55 PM 24.8 °F 16.9 °F 17.6 °F 74% 29.85 in 10.0 mi South 6.9 mph - N/A   Overcast
10:15 PM 24.8 °F 16.9 °F 17.6 °F 74% 29.84 in 10.0 mi SSW 6.9 mph - N/A   Overcast
10:35 PM 24.8 °F 16.9 °F 17.6 °F 74% 29.83 in 10.0 mi SSW 6.9 mph - N/A   Overcast
10:55 PM 24.8 °F 16.1 °F 19.4 °F 80% 29.82 in 7.0 mi SSW 8.1 mph - N/A   Overcast
11:15 PM 23.0 °F 13.9 °F 21.2 °F 93% 29.81 in 4.0 mi SSW 8.1 mph - N/A Snow Light Snow
11:35 PM 23.0 °F 14.7 °F 21.2 °F 93% 29.80 in 5.0 mi SSW 6.9 mph - N/A Snow Light Snow
11:55 PM 23.0 °F 15.8 °F 21.2 °F 93% 29.79 in 7.0 mi SSW 5.8 mph - N/A   Overcast